#timestamp,LO_Frequency,Hit,StdDev 
1560456015.1,286047003.8,N
1560456016.0,286047003.8,N
1560456035.8,286047004.1,N
1560456055.7,286047004.3,Y
1560456075.5,286046998.1,P
1560456095.3,286046998.6,N
1560456115.2,286047001.2,N
1560456135.0,286047000.4,N
1560456135.9,286047000.4,N
1560456155.8,286046998.3,N
1560456175.6,286046998.7,N
1560456195.4,286046998.5,N
1560456215.3,286046999.1,N
1560456235.1,286046996.9,N
1560456255.8,286046997.8,N
1560456275.7,286046995.6,N
1560456295.5,286046995.5,N
1560456315.4,286046996.8,N
1560456335.2,286046997.2,N
1560456355.0,286046997.8,N
1560456355.9,286046997.8,N
1560456375.8,286046996.6,N
1560456395.6,286046995.0,N
1560456415.4,286046995.2,N
1560456435.3,286046997.4,N
1560456455.1,286046996.2,N
1560456475.9,286046995.6,N
1560456495.7,286046995.6,N
1560456515.5,286046996.1,N
1560456535.4,286046996.4,N
1560456555.2,286046995.8,N
1560456575.0,286046995.8,N
1560456576.0,286046995.8,N
1560456595.8,286046995.8,N
1560456615.6,286046996.0,N
1560456635.5,286046993.3,Y
1560456655.3,286046996.5,P
1560456675.1,286046996.5,P
1560456695.9,286046999.5,N
1560456715.7,286046998.1,N
1560456735.6,286046999.3,N
1560456755.4,286046998.9,N
1560456775.2,286046999.0,N
1560456795.1,286046999.0,N
1560456796.0,286046999.0,N
1560456815.8,286046996.7,Y
1560456835.6,286046998.3,P
1560456855.5,286047001.2,P
1560456875.3,286046998.7,N
1560456895.2,286046998.7,N
1560456915.9,286046998.6,N
1560456935.7,286047000.3,N
1560456955.6,286047000.6,N
1560456975.4,286047002.3,N
1560456995.2,286047002.1,N
1560457015.1,286047000.8,N
1560457016.0,286047000.8,N
1560457035.8,286046997.3,N
1560457055.7,286046999.1,N
1560457075.5,286046995.2,Y
1560457095.3,286046995.8,P
1560457115.2,286046993.3,P
1560457135.0,286046995.9,N
1560457135.9,286046995.9,N
1560457155.7,286046996.4,N
1560457175.6,286046996.0,N
1560457195.4,286046995.9,N
1560457215.3,286046997.1,N
1560457235.1,286046997.3,N
1560457236.0,286046997.3,N
1560457255.8,286046998.6,N
1560457275.7,286047000.9,N
1560457295.5,286046998.3,N
1560457315.4,286046997.7,N
1560457335.2,286046997.5,N
1560457355.0,286046996.7,N
1560457355.9,286046996.7,N
1560457375.8,286046999.2,N
1560457395.6,286046998.1,N
1560457415.5,286046997.1,N
1560457435.3,286046996.9,N
1560457455.1,286046996.7,N
1560457475.9,286046996.8,N
1560457495.7,286046996.7,N
1560457515.5,286046998.6,N
1560457535.4,286046997.0,N
1560457555.2,286046996.6,N
1560457575.0,286046999.5,N
1560457576.0,286046999.5,N
1560457595.8,286046999.3,N
1560457615.6,286046999.6,N
1560457635.5,286046998.5,N
1560457655.3,286046996.8,N
1560457675.1,286046998.5,N
1560457695.9,286046999.5,N
1560457715.7,286046997.2,N
1560457735.6,286046996.6,N
1560457755.4,286046998.3,N
1560457775.2,286046996.7,N
1560457795.1,286046997.0,N
1560457796.0,286046997.0,N
1560457815.8,286046997.6,N
1560457835.6,286046997.8,N
1560457855.5,286046998.9,N
1560457875.3,286047000.8,N
1560457895.2,286046999.9,N
1560457915.9,286047001.0,N
1560457935.7,286047001.1,N
1560457955.6,286047000.5,N
1560457975.4,286047000.5,N
1560457995.2,286047001.2,N
1560458015.1,286047000.9,N
1560458016.0,286047000.9,N
1560458035.8,286047000.7,N
1560458055.7,286046998.3,N
1560458075.5,286046998.9,N
1560458095.3,286046998.2,N
1560458115.2,286046998.4,N
1560458135.0,286047000.8,N
1560458135.9,286047000.8,N
1560458155.8,286046999.0,N
1560458175.6,286046998.5,N
1560458195.4,286046998.1,N
1560458215.3,286047001.1,N
1560458235.1,286047001.0,N
1560458255.9,286046999.7,N
1560458275.7,286047000.7,N
1560458295.5,286047000.9,N
1560458315.4,286047002.8,N
1560458335.2,286047002.6,N
1560458355.1,286047002.5,N
1560458356.0,286047002.5,N
1560458375.8,286047004.3,Y
1560458395.6,286046999.8,P
1560458415.5,286047000.6,N
1560458435.3,286047002.8,P
1560458455.1,286047002.2,N
1560458475.9,286047002.2,N
1560458495.7,286047002.1,N
1560458515.6,286046999.7,N
1560458535.4,286047000.2,N
1560458555.2,286047001.0,N
1560458575.1,286046998.4,N
1560458576.0,286046998.4,N
1560458595.8,286047001.1,N
1560458615.6,286047002.8,N
1560458635.5,286047002.8,N
1560458655.3,286047000.9,N
1560458675.2,286047000.1,N
1560458695.9,286046999.8,N
1560458715.7,286046999.8,N
1560458735.6,286047000.9,N
1560458755.4,286046999.7,N
1560458775.2,286047000.0,N
1560458795.1,286047001.0,N
1560458796.0,286047001.0,N
1560458815.8,286047000.5,N
1560458835.7,286047000.8,N
1560458855.5,286046998.9,N
1560458875.3,286046998.8,N
1560458895.2,286047000.9,N
1560458915.0,286047002.8,N
1560458915.9,286047002.8,N
1560458935.7,286047002.0,N
1560458955.6,286047002.6,N
1560459005.5,286047002.6,E
1560459015.4,286047001.1,N
1560459065.2,286046996.6,E
1560459075.2,286046998.5,N
1560459095.0,286046999.8,P
1560459095.9,286046999.8,N
1560459115.8,286047002.7,Y
1560459135.6,286046999.7,P
1560459155.4,286047002.7,P
1560459175.3,286047002.8,N
1560459195.1,286047002.1,N
1560459215.8,286047002.6,N
1560459235.7,286047001.3,N
1560459255.5,286047004.4,Y
1560459275.4,286047002.8,P
1560459295.2,286047000.2,N
1560459315.0,286047002.4,N
1560459315.9,286047002.4,N
1560459335.8,286047001.8,N
1560459355.6,286047004.2,Y
1560459375.4,286047002.7,P
1560459395.3,286047000.5,N
1560459415.1,286047002.3,N
1560459435.9,286047002.4,N
1560459455.7,286047001.6,N
1560459475.5,286047002.4,Y
1560459495.4,286046998.4,P
1560459515.2,286046998.2,N
1560459535.1,286046998.5,N
1560459536.0,286046998.5,N
1560459555.8,286046997.3,N
1560459575.6,286046994.9,Y
1560459595.5,286046997.7,P
